Flight Track Log - Related Links

Times and Time Zones

All times are in EDT time to prevent confusion due to time zone crossing. See the CES5256 flight status page for this flight to view local times or setup timezone preferences in your user account.


Time Position Orientation Groundspeed Altitude Reporting Facility
EDT Latitude Longitude Course Direction KTS MPH feet Rate Location/Type
Wed 04:43:14 AM 23.4340 113.3280 28° Northeast 2,800  Level FlightAware ADS-B
Wed 04:43:34 AM 23.4490 113.3380 31° Northeast 205 236 3,500 1,692 Climbing FlightAware ADS-B
Wed 04:43:53 AM 23.4630 113.3470 31° Northeast 150 173 3,900 1,200 Climbing FlightAware ADS-B
Wed 04:44:09 AM 23.4760 113.3540 26° Northeast 209 241 4,200 1,680 Climbing FlightAware ADS-B
Wed 04:44:18 AM 23.4850 113.3600 31° Northeast 228 262 4,600 2,308 Climbing FlightAware ADS-B
Wed 04:44:22 AM 23.4880 113.3630 43° Northeast 225 259 4,700 2,500 Climbing FlightAware ADS-B
Wed 04:44:30 AM 23.4940 113.3700 47° Northeast 199 229 5,100 2,625 Climbing FlightAware ADS-B
Wed 04:44:38 AM 23.4980 113.3780 61° Northeast 263 303 5,400 1,875 Climbing FlightAware ADS-B
Wed 04:44:46 AM 23.5000 113.3870 76° East 258 297 5,600 1,500 Climbing FlightAware ADS-B
Wed 04:45:06 AM 23.5040 113.4130 80° East 318 366 6,100 1,024 Climbing FlightAware ADS-B
Wed 04:45:27 AM 23.5070 113.4380 83° East 301 346 6,300 643 Climbing FlightAware ADS-B
Wed 04:45:34 AM 23.5090 113.4510 80° East 344 396 6,400 300 Climbing FlightAware ADS-B
Wed 04:45:47 AM 23.5120 113.4680 79° East 229 264 6,400 188 Level FlightAware ADS-B
Wed 04:46:06 AM 23.5160 113.4950 81° East 243 280 6,500 698 Climbing FlightAware ADS-B
Wed 04:46:30 AM 23.5220 113.5290 79° East 332 382 6,900 933 Climbing FlightAware ADS-B
Wed 04:46:51 AM 23.5260 113.5560 81° East 246 283 7,200 750 Climbing FlightAware ADS-B
Wed 04:47:10 AM 23.5310 113.5840 79° East 249 287 7,400 353 Climbing FlightAware ADS-B
Wed 04:47:25 AM 23.5340 113.6050 81° East 281 323 7,400 833 Level FlightAware ADS-B
Wed 04:47:46 AM 23.5390 113.6350 80° East 232 267 7,900 1,902 Climbing FlightAware ADS-B
Wed 04:48:06 AM 23.5430 113.6630 81° East 329 379 8,700 2,455 Climbing FlightAware ADS-B
Wed 04:48:30 AM 23.5490 113.6980 79° East 357 411 9,700 2,250 Climbing FlightAware ADS-B
Wed 04:49:02 AM 23.5570 113.7470 80° East 273 314 10,800 1,478 Climbing FlightAware ADS-B
Wed 04:49:39 AM 23.5670 113.8060 80° East 365 420 11,400 1,167 Climbing FlightAware ADS-B
Wed 04:50:14 AM 23.5770 113.8710 80° East 460 529 12,200 1,970 Climbing FlightAware ADS-B
Wed 04:50:46 AM 23.5860 113.9280 80° East 349 402 13,600 2,382 Climbing FlightAware ADS-B
Wed 04:51:22 AM 23.5970 113.9950 80° East 297 342 14,900 1,973 Climbing FlightAware ADS-B
Wed 04:51:59 AM 23.6070 114.0630 81° East 374 430 16,000 1,784 Climbing FlightAware ADS-B
Wed 04:52:36 AM 23.6190 114.1340 80° East 432 497 17,100 1,097 Climbing FlightAware ADS-B
Wed 04:57:54 AM 23.9800 114.5980 16° North 22,500 1,023 Climbing FlightAware ADS-B
Wed 04:58:22 AM 24.0250 114.6350 37° Northeast 437 503 23,000 971 Climbing FlightAware ADS-B
Wed 04:59:02 AM 24.0860 114.6860 37° Northeast 446 513 23,600 917 Climbing FlightAware ADS-B
Wed 04:59:34 AM 24.1380 114.7290 37° Northeast 392 451 24,100 1,263 Climbing FlightAware ADS-B
Wed 05:00:18 AM 24.2090 114.7870 37° Northeast 500 575 25,200 1,425 Climbing FlightAware ADS-B
Wed 05:00:54 AM 24.2700 114.8280 31° Northeast 509 586 26,000 440 Climbing FlightAware ADS-B
Wed 05:02:26 AM 24.4420 114.8880 18° North 26,600 232 Climbing FlightAware ADS-B
Wed 05:03:29 AM 24.5590 114.9170 13° North 444 511 26,600  Level FlightAware ADS-B

Login

Don't have an account? Register now (free) for customized features, flight alerts, and more!